Time,TemperatureF,DewpointF,PressureIn,WindDirection,WindDirectionDegrees,WindSpeedMPH,WindSpeedGustMPH,Humidity,HourlyPrecipIn,Conditions,Clouds,dailyrainin,SoftwareType,DateUTC
2013-01-07 00:00:00,40.5,39.5,29.96,SE,135,1.0,4.5,96,0.00,,,0.05,NetBSD+Arduino,2013-01-07 08:00:00,
2013-01-07 00:06:00,40.5,39.5,29.96,SE,135,0.7,4.5,96,0.00,,,0.00,NetBSD+Arduino,2013-01-07 08:06:00,
2013-01-07 00:11:00,40.5,39.5,29.95,SE,135,1.9,6.0,96,0.00,,,0.00,NetBSD+Arduino,2013-01-07 08:11:00,
2013-01-07 00:16:00,40.5,39.5,29.95,South,180,3.7,4.5,96,0.00,,,0.00,NetBSD+Arduino,2013-01-07 08:16:00,
2013-01-07 00:21:00,40.5,39.6,29.95,SE,135,2.6,4.5,96,0.00,,,0.00,NetBSD+Arduino,2013-01-07 08:21:00,
2013-01-07 00:30:00,40.5,39.7,29.94,South,180,2.2,7.5,97,0.00,,,0.00,NetBSD+Arduino,2013-01-07 08:30:00,
2013-01-07 00:36:00,40.5,39.7,29.95,South,180,4.5,6.0,97,0.00,,,0.00,NetBSD+Arduino,2013-01-07 08:36:00,
2013-01-07 00:41:00,40.5,39.7,29.95,South,180,2.6,6.0,97,0.02,,,0.02,NetBSD+Arduino,2013-01-07 08:41:00,
2013-01-07 00:46:00,40.5,39.7,29.94,SE,135,5.1,6.0,97,0.02,,,0.02,NetBSD+Arduino,2013-01-07 08:46:00,
2013-01-07 00:51:00,40.5,39.7,29.93,SE,135,1.5,6.0,97,0.02,,,0.02,NetBSD+Arduino,2013-01-07 08:51:00,
2013-01-07 00:56:00,40.5,39.8,29.93,SE,135,4.5,6.0,97,0.02,,,0.02,NetBSD+Arduino,2013-01-07 08:56:00,
2013-01-07 01:01:00,40.5,39.8,29.93,SE,135,1.8,6.0,97,0.02,,,0.02,NetBSD+Arduino,2013-01-07 09:01:00,
2013-01-07 01:06:00,40.5,39.9,29.93,SE,135,2.4,6.0,97,0.02,,,0.02,NetBSD+Arduino,2013-01-07 09:06:00,
2013-01-07 01:11:00,40.5,39.9,29.93,South,180,2.2,6.0,97,0.02,,,0.02,NetBSD+Arduino,2013-01-07 09:11:00,
2013-01-07 01:16:00,40.5,39.9,29.92,South,180,2.1,4.5,97,0.02,,,0.02,NetBSD+Arduino,2013-01-07 09:16:00,
2013-01-07 01:21:00,40.5,40.0,29.92,South,180,4.1,4.5,97,0.02,,,0.02,NetBSD+Arduino,2013-01-07 09:21:00,
2013-01-07 01:26:00,40.6,40.1,29.92,SE,135,4.1,6.0,98,0.02,,,0.02,NetBSD+Arduino,2013-01-07 09:26:00,
2013-01-07 01:31:00,40.6,40.1,29.93,South,180,1.5,6.0,98,0.03,,,0.03,NetBSD+Arduino,2013-01-07 09:31:00,
2013-01-07 01:36:00,40.6,40.1,29.93,East,90,1.9,4.5,98,0.03,,,0.03,NetBSD+Arduino,2013-01-07 09:36:00,
2013-01-07 01:41:00,40.6,40.1,29.92,SE,135,4.5,6.0,98,0.02,,,0.03,NetBSD+Arduino,2013-01-07 09:41:00,
2013-01-07 01:46:00,40.7,40.2,29.93,SE,135,1.5,10.4,98,0.02,,,0.03,NetBSD+Arduino,2013-01-07 09:46:00,
2013-01-07 01:56:00,40.8,40.2,29.92,East,90,3.4,7.5,98,0.03,,,0.05,NetBSD+Arduino,2013-01-07 09:56:00,
2013-01-07 02:01:00,40.8,40.3,29.92,SE,135,3.4,7.5,98,0.05,,,0.06,NetBSD+Arduino,2013-01-07 10:01:00,
2013-01-07 02:11:00,40.8,40.3,29.91,SE,135,3.3,6.0,98,0.05,,,0.06,NetBSD+Arduino,2013-01-07 10:11:00,
2013-01-07 02:16:00,40.8,40.3,29.91,SE,135,2.2,6.0,98,0.05,,,0.06,NetBSD+Arduino,2013-01-07 10:16:00,
2013-01-07 02:26:00,40.9,40.4,29.91,East,90,1.9,3.0,98,0.05,,,0.06,NetBSD+Arduino,2013-01-07 10:26:00,
2013-01-07 02:36:00,41.2,40.7,29.90,SE,135,4.8,7.5,98,0.03,,,0.06,NetBSD+Arduino,2013-01-07 10:36:00,
2013-01-07 02:41:00,41.2,40.7,29.90,South,180,4.2,6.0,98,0.03,,,0.06,NetBSD+Arduino,2013-01-07 10:41:00,
2013-01-07 02:46:00,41.2,40.7,29.90,SE,135,1.1,7.5,98,0.03,,,0.06,NetBSD+Arduino,2013-01-07 10:46:00,
2013-01-07 02:51:00,41.2,40.8,29.90,South,180,3.9,7.5,98,0.02,,,0.06,NetBSD+Arduino,2013-01-07 10:51:00,
2013-01-07 02:56:00,41.2,40.8,29.90,SE,135,2.2,7.5,98,0.02,,,0.06,NetBSD+Arduino,2013-01-07 10:56:00,
2013-01-07 03:01:00,41.2,40.8,29.89,East,90,2.6,3.0,98,0.00,,,0.06,NetBSD+Arduino,2013-01-07 11:01:00,
2013-01-07 03:06:00,41.2,40.7,29.88,South,180,3.7,6.0,98,0.00,,,0.06,NetBSD+Arduino,2013-01-07 11:06:00,
2013-01-07 03:11:00,41.3,40.8,29.88,South,180,1.8,7.5,98,0.00,,,0.06,NetBSD+Arduino,2013-01-07 11:11:00,
2013-01-07 03:20:00,41.5,41.0,29.88,South,180,3.2,4.5,98,0.00,,,0.06,NetBSD+Arduino,2013-01-07 11:20:00,
2013-01-07 03:26:00,41.5,41.0,29.87,SE,135,1.8,3.0,98,0.00,,,0.06,NetBSD+Arduino,2013-01-07 11:26:00,
2013-01-07 03:31:00,41.5,41.0,29.88,South,180,3.4,6.0,98,0.00,,,0.06,NetBSD+Arduino,2013-01-07 11:31:00,
2013-01-07 03:36:00,41.5,41.0,29.87,South,180,1.9,7.5,98,0.00,,,0.06,NetBSD+Arduino,2013-01-07 11:36:00,
2013-01-07 03:41:00,41.7,41.2,29.87,SE,135,6.6,10.4,98,0.00,,,0.06,NetBSD+Arduino,2013-01-07 11:41:00,
2013-01-07 03:46:00,41.8,41.1,29.87,SE,135,4.2,10.4,97,0.00,,,0.06,NetBSD+Arduino,2013-01-07 11:46:00,
2013-01-07 03:51:00,41.8,41.2,29.87,SE,135,7.8,10.4,97,0.00,,,0.06,NetBSD+Arduino,2013-01-07 11:51:00,
2013-01-07 03:56:00,41.9,41.2,29.86,South,180,3.7,9.0,97,0.00,,,0.06,NetBSD+Arduino,2013-01-07 11:56:00,
2013-01-07 04:01:00,42.0,41.4,29.86,SE,135,4.8,11.9,97,0.00,,,0.06,NetBSD+Arduino,2013-01-07 12:01:00,
2013-01-07 04:06:00,42.2,41.3,29.86,South,180,4.8,10.4,96,0.00,,,0.06,NetBSD+Arduino,2013-01-07 12:06:00,
2013-01-07 04:11:00,42.2,41.3,29.86,South,180,4.1,7.5,96,0.00,,,0.06,NetBSD+Arduino,2013-01-07 12:11:00,
2013-01-07 04:16:00,42.3,41.5,29.85,South,180,1.9,9.0,96,0.00,,,0.06,NetBSD+Arduino,2013-01-07 12:16:00,
2013-01-07 04:26:00,42.3,41.5,29.85,SE,135,3.4,9.0,96,0.00,,,0.06,NetBSD+Arduino,2013-01-07 12:26:00,
2013-01-07 04:36:00,42.3,41.4,29.84,SE,135,3.4,10.4,96,0.00,,,0.06,NetBSD+Arduino,2013-01-07 12:36:00,
2013-01-07 04:41:00,42.3,41.4,29.84,South,180,2.2,10.4,96,0.00,,,0.06,NetBSD+Arduino,2013-01-07 12:41:00,
2013-01-07 04:51:00,42.3,41.4,29.82,South,180,5.2,9.0,96,0.00,,,0.06,NetBSD+Arduino,2013-01-07 12:51:00,
2013-01-07 04:56:00,42.3,41.5,29.82,SE,135,1.1,11.9,96,0.00,,,0.06,NetBSD+Arduino,2013-01-07 12:56:00,
2013-01-07 05:01:00,42.3,41.4,29.82,East,90,4.8,7.5,96,0.00,,,0.06,NetBSD+Arduino,2013-01-07 13:01:00,
2013-01-07 05:06:00,42.3,41.4,29.82,SE,135,4.8,7.5,96,0.00,,,0.06,NetBSD+Arduino,2013-01-07 13:06:00,
2013-01-07 05:11:00,42.2,41.3,29.80,South,180,2.6,7.5,96,0.00,,,0.06,NetBSD+Arduino,2013-01-07 13:11:00,
2013-01-07 05:21:00,42.2,41.5,29.80,South,180,0.7,7.5,97,0.00,,,0.06,NetBSD+Arduino,2013-01-07 13:21:00,
2013-01-07 05:26:00,42.2,41.5,29.79,SE,135,1.1,9.0,97,0.00,,,0.06,NetBSD+Arduino,2013-01-07 13:26:00,
2013-01-07 05:31:00,42.2,41.5,29.79,South,180,1.8,6.0,97,0.00,,,0.06,NetBSD+Arduino,2013-01-07 13:31:00,
2013-01-07 05:36:00,42.3,41.7,29.79,SE,135,4.5,6.0,97,0.00,,,0.06,NetBSD+Arduino,2013-01-07 13:36:00,
2013-01-07 05:41:00,42.5,41.9,29.79,South,180,7.8,10.4,97,0.00,,,0.06,NetBSD+Arduino,2013-01-07 13:41:00,
2013-01-07 05:46:00,42.8,42.1,29.79,South,180,2.1,10.4,97,0.00,,,0.06,NetBSD+Arduino,2013-01-07 13:46:00,
2013-01-07 05:51:00,43.0,42.1,29.79,SW,225,2.4,9.0,96,0.00,,,0.06,NetBSD+Arduino,2013-01-07 13:51:00,
2013-01-07 05:56:00,43.2,42.4,29.79,South,180,3.4,11.9,96,0.00,,,0.06,NetBSD+Arduino,2013-01-07 13:56:00,
2013-01-07 06:06:00,43.5,42.7,29.80,SW,225,4.8,11.9,96,0.00,,,0.06,NetBSD+Arduino,2013-01-07 14:06:00,
2013-01-07 06:11:00,43.6,42.8,29.80,South,180,3.0,9.0,96,0.00,,,0.06,NetBSD+Arduino,2013-01-07 14:11:00,
2013-01-07 06:16:00,43.6,42.8,29.79,South,180,6.3,10.4,96,0.00,,,0.06,NetBSD+Arduino,2013-01-07 14:16:00,
2013-01-07 06:21:00,43.7,43.0,29.79,South,180,2.1,10.4,97,0.00,,,0.06,NetBSD+Arduino,2013-01-07 14:21:00,
2013-01-07 06:31:00,44.3,43.5,29.79,SE,135,6.3,14.9,97,0.00,,,0.06,NetBSD+Arduino,2013-01-07 14:31:00,
2013-01-07 06:36:00,44.6,43.8,29.79,South,180,7.1,20.9,97,0.00,,,0.06,NetBSD+Arduino,2013-01-07 14:36:00,
2013-01-07 06:41:00,44.6,43.8,29.79,SE,135,3.0,13.4,97,0.00,,,0.06,NetBSD+Arduino,2013-01-07 14:41:00,
2013-01-07 06:46:00,44.8,44.0,29.79,SW,225,8.6,16.4,97,0.00,,,0.06,NetBSD+Arduino,2013-01-07 14:46:00,
2013-01-07 06:51:00,44.9,43.9,29.79,SW,225,12.2,16.4,96,0.00,,,0.06,NetBSD+Arduino,2013-01-07 14:51:00,
2013-01-07 06:56:00,45.0,44.0,29.79,South,180,10.8,17.9,96,0.00,,,0.06,NetBSD+Arduino,2013-01-07 14:56:00,
2013-01-07 07:01:00,45.2,44.2,29.78,SW,225,4.5,17.9,96,0.00,,,0.06,NetBSD+Arduino,2013-01-07 15:01:00,
2013-01-07 07:06:00,45.1,44.1,29.77,South,180,4.8,14.9,96,0.00,,,0.06,NetBSD+Arduino,2013-01-07 15:06:00,
2013-01-07 07:11:00,45.2,44.2,29.77,SW,225,14.9,20.9,96,0.00,,,0.06,NetBSD+Arduino,2013-01-07 15:11:00,
2013-01-07 07:16:00,45.4,44.3,29.77,South,180,12.7,17.9,95,0.00,,,0.06,NetBSD+Arduino,2013-01-07 15:16:00,
2013-01-07 07:21:00,45.4,44.2,29.77,South,180,7.2,16.4,95,0.00,,,0.06,NetBSD+Arduino,2013-01-07 15:21:00,
2013-01-07 07:26:00,45.5,44.3,29.77,SW,225,7.5,22.4,95,0.00,,,0.06,NetBSD+Arduino,2013-01-07 15:26:00,
2013-01-07 07:31:00,45.5,44.3,29.77,SW,225,9.3,14.9,95,0.00,,,0.06,NetBSD+Arduino,2013-01-07 15:31:00,
2013-01-07 07:40:00,45.8,44.6,29.76,West,270,7.8,19.4,95,0.00,,,0.06,NetBSD+Arduino,2013-01-07 15:40:00,
2013-01-07 07:46:00,45.9,44.7,29.76,South,180,6.3,26.9,95,0.00,,,0.06,NetBSD+Arduino,2013-01-07 15:46:00,
2013-01-07 07:51:00,45.9,44.5,29.76,SW,225,5.5,19.4,94,0.00,,,0.06,NetBSD+Arduino,2013-01-07 15:51:00,
2013-01-07 07:56:00,46.1,44.7,29.76,South,180,6.0,25.4,94,0.02,,,0.08,NetBSD+Arduino,2013-01-07 15:56:00,
2013-01-07 08:06:00,46.3,44.7,29.77,South,180,10.1,22.4,94,0.02,,,0.08,NetBSD+Arduino,2013-01-07 16:06:00,
2013-01-07 08:11:00,46.4,44.8,29.77,SE,135,7.5,26.9,94,0.02,,,0.08,NetBSD+Arduino,2013-01-07 16:11:00,
2013-01-07 08:16:00,46.7,45.0,29.77,South,180,9.0,22.4,93,0.02,,,0.08,NetBSD+Arduino,2013-01-07 16:16:00,
2013-01-07 08:21:00,46.8,45.0,29.78,South,180,7.1,16.4,93,0.02,,,0.08,NetBSD+Arduino,2013-01-07 16:21:00,
2013-01-07 08:26:00,46.9,45.1,29.78,South,180,6.9,19.4,93,0.02,,,0.08,NetBSD+Arduino,2013-01-07 16:26:00,
2013-01-07 08:31:00,47.2,45.2,29.78,South,180,7.5,14.9,93,0.02,,,0.08,NetBSD+Arduino,2013-01-07 16:31:00,
2013-01-07 08:36:00,47.4,45.3,29.78,South,180,6.7,17.9,92,0.02,,,0.08,NetBSD+Arduino,2013-01-07 16:36:00,
2013-01-07 08:41:00,47.5,45.5,29.79,South,180,5.1,16.4,92,0.02,,,0.08,NetBSD+Arduino,2013-01-07 16:41:00,
2013-01-07 08:46:00,47.6,45.6,29.79,South,180,4.8,17.9,92,0.02,,,0.08,NetBSD+Arduino,2013-01-07 16:46:00,
2013-01-07 08:51:00,47.6,45.6,29.79,South,180,14.2,17.9,92,0.02,,,0.08,NetBSD+Arduino,2013-01-07 16:51:00,
2013-01-07 08:56:00,47.7,45.7,29.79,South,180,1.5,14.9,92,0.00,,,0.08,NetBSD+Arduino,2013-01-07 16:56:00,
2013-01-07 09:06:00,47.8,45.8,29.81,South,180,8.6,20.9,92,0.00,,,0.08,NetBSD+Arduino,2013-01-07 17:06:00,
2013-01-07 09:11:00,47.9,45.9,29.80,South,180,3.3,17.9,92,0.00,,,0.08,NetBSD+Arduino,2013-01-07 17:11:00,
2013-01-07 09:16:00,47.8,45.8,29.81,South,180,1.5,17.9,92,0.00,,,0.08,NetBSD+Arduino,2013-01-07 17:16:00,
2013-01-07 09:21:00,47.9,45.9,29.81,SW,225,5.2,13.4,92,0.00,,,0.08,NetBSD+Arduino,2013-01-07 17:21:00,
2013-01-07 09:26:00,48.1,46.1,29.82,South,180,6.0,17.9,92,0.00,,,0.08,NetBSD+Arduino,2013-01-07 17:26:00,
2013-01-07 09:31:00,48.1,46.1,29.82,SE,135,5.1,16.4,92,0.00,,,0.08,NetBSD+Arduino,2013-01-07 17:31:00,
2013-01-07 09:36:00,48.2,46.2,29.82,SW,225,4.5,22.4,92,0.00,,,0.08,NetBSD+Arduino,2013-01-07 17:36:00,
2013-01-07 09:46:00,48.3,46.4,29.82,South,180,10.1,14.9,93,0.00,,,0.08,NetBSD+Arduino,2013-01-07 17:46:00,
2013-01-07 09:51:00,48.4,46.5,29.83,West,270,9.0,17.9,93,0.00,,,0.08,NetBSD+Arduino,2013-01-07 17:51:00,
2013-01-07 10:06:00,48.5,46.7,29.83,South,180,6.0,16.4,93,0.00,,,0.08,NetBSD+Arduino,2013-01-07 18:06:00,
2013-01-07 10:11:00,48.5,46.8,29.83,South,180,3.7,22.4,93,0.00,,,0.08,NetBSD+Arduino,2013-01-07 18:11:00,
2013-01-07 10:16:00,48.7,46.8,29.84,South,180,10.1,17.9,93,0.00,,,0.08,NetBSD+Arduino,2013-01-07 18:16:00,
2013-01-07 10:26:00,48.8,46.8,29.84,South,180,13.4,20.9,92,0.00,,,0.08,NetBSD+Arduino,2013-01-07 18:26:00,
2013-01-07 10:31:00,48.7,46.8,29.84,South,180,9.5,20.9,92,0.00,,,0.08,NetBSD+Arduino,2013-01-07 18:31:00,
2013-01-07 10:41:00,48.7,46.7,29.84,South,180,5.5,11.9,92,0.00,,,0.08,NetBSD+Arduino,2013-01-07 18:41:00,
2013-01-07 10:46:00,48.8,46.8,29.85,South,180,6.3,17.9,92,0.00,,,0.08,NetBSD+Arduino,2013-01-07 18:46:00,
2013-01-07 10:51:00,48.8,46.8,29.85,South,180,6.3,14.9,92,0.00,,,0.08,NetBSD+Arduino,2013-01-07 18:51:00,
2013-01-07 10:56:00,49.0,47.0,29.86,SW,225,11.2,25.4,92,0.00,,,0.08,NetBSD+Arduino,2013-01-07 18:56:00,
2013-01-07 11:06:00,49.0,47.0,29.86,SE,135,5.6,13.4,92,0.00,,,0.08,NetBSD+Arduino,2013-01-07 19:06:00,
2013-01-07 11:16:00,49.1,47.1,29.85,South,180,3.7,16.4,92,0.00,,,0.08,NetBSD+Arduino,2013-01-07 19:16:00,
2013-01-07 11:21:00,49.2,47.2,29.86,South,180,5.2,19.4,92,0.00,,,0.08,NetBSD+Arduino,2013-01-07 19:21:00,
2013-01-07 11:30:00,49.2,47.3,29.84,SW,225,6.0,14.9,92,0.00,,,0.08,NetBSD+Arduino,2013-01-07 19:30:00,
2013-01-07 11:36:00,49.2,47.3,29.84,South,180,9.3,20.9,92,0.00,,,0.08,NetBSD+Arduino,2013-01-07 19:36:00,
2013-01-07 11:41:00,49.4,47.4,29.84,South,180,7.1,14.9,92,0.00,,,0.08,NetBSD+Arduino,2013-01-07 19:41:00,
2013-01-07 11:46:00,49.4,47.3,29.85,South,180,5.2,20.9,92,0.00,,,0.08,NetBSD+Arduino,2013-01-07 19:46:00,
2013-01-07 11:51:00,49.7,47.5,29.84,SW,225,8.2,19.4,92,0.00,,,0.08,NetBSD+Arduino,2013-01-07 19:51:00,
2013-01-07 11:56:00,49.7,47.5,29.85,South,180,6.3,19.4,92,0.00,,,0.08,NetBSD+Arduino,2013-01-07 19:56:00,
2013-01-07 12:06:00,49.7,47.4,29.84,South,180,15.3,19.4,91,0.00,,,0.08,NetBSD+Arduino,2013-01-07 20:06:00,
2013-01-07 12:11:00,49.7,47.5,29.86,SW,225,5.7,16.4,92,0.00,,,0.08,NetBSD+Arduino,2013-01-07 20:11:00,
2013-01-07 12:26:00,49.8,47.3,29.85,South,180,12.7,19.4,91,0.00,,,0.08,NetBSD+Arduino,2013-01-07 20:26:00,
2013-01-07 12:30:00,49.8,47.4,29.87,South,180,4.5,17.9,91,0.00,,,0.08,NetBSD+Arduino,2013-01-07 20:30:00,
2013-01-07 12:36:00,50.0,47.5,29.87,South,180,12.3,25.4,91,0.00,,,0.08,NetBSD+Arduino,2013-01-07 20:36:00,
2013-01-07 12:51:00,50.0,47.3,29.87,South,180,5.0,20.9,90,0.00,,,0.08,NetBSD+Arduino,2013-01-07 20:51:00,
2013-01-07 12:56:00,50.1,47.3,29.87,South,180,4.2,19.4,90,0.00,,,0.08,NetBSD+Arduino,2013-01-07 20:56:00,
2013-01-07 13:06:00,50.1,47.2,29.88,SW,225,6.3,17.9,89,0.00,,,0.08,NetBSD+Arduino,2013-01-07 21:06:00,
2013-01-07 13:11:00,50.1,47.1,29.89,East,90,1.2,17.9,89,0.00,,,0.08,NetBSD+Arduino,2013-01-07 21:11:00,
2013-01-07 13:16:00,50.1,47.0,29.89,SW,225,4.8,14.9,88,0.00,,,0.08,NetBSD+Arduino,2013-01-07 21:16:00,
2013-01-07 13:21:00,50.1,47.1,29.89,SW,225,7.8,16.4,89,0.00,,,0.08,NetBSD+Arduino,2013-01-07 21:21:00,
2013-01-07 13:26:00,50.0,46.8,29.90,SW,225,4.5,17.9,88,0.00,,,0.08,NetBSD+Arduino,2013-01-07 21:26:00,
2013-01-07 13:31:00,50.2,47.0,29.91,West,270,7.5,11.9,88,0.00,,,0.08,NetBSD+Arduino,2013-01-07 21:31:00,
2013-01-07 13:40:00,50.2,47.0,29.92,West,270,4.5,19.4,88,0.00,,,0.08,NetBSD+Arduino,2013-01-07 21:40:00,
2013-01-07 13:45:00,50.0,46.8,29.92,SW,225,5.6,14.9,88,0.00,,,0.08,NetBSD+Arduino,2013-01-07 21:45:00,
2013-01-07 13:50:00,50.1,47.0,29.91,SW,225,1.1,10.4,88,0.00,,,0.08,NetBSD+Arduino,2013-01-07 21:50:00,
2013-01-07 13:55:00,50.0,46.8,29.92,SW,225,4.1,11.9,88,0.00,,,0.08,NetBSD+Arduino,2013-01-07 21:55:00,
2013-01-07 14:00:00,50.0,46.8,29.92,South,180,7.8,14.9,88,0.00,,,0.08,NetBSD+Arduino,2013-01-07 22:00:00,
2013-01-07 14:11:00,49.8,46.5,29.93,SW,225,5.6,14.9,88,0.00,,,0.08,NetBSD+Arduino,2013-01-07 22:11:00,
2013-01-07 14:20:00,49.7,46.5,29.94,SW,225,4.8,10.4,88,0.00,,,0.08,NetBSD+Arduino,2013-01-07 22:20:00,
2013-01-07 14:25:00,49.5,46.4,29.95,SW,225,9.0,20.9,88,0.00,,,0.08,NetBSD+Arduino,2013-01-07 22:25:00,
2013-01-07 14:30:00,49.5,46.5,29.95,South,180,1.5,17.9,89,0.00,,,0.08,NetBSD+Arduino,2013-01-07 22:30:00,
2013-01-07 14:35:00,49.4,46.5,29.93,West,270,4.1,14.9,89,0.00,,,0.08,NetBSD+Arduino,2013-01-07 22:35:00,
2013-01-07 14:40:00,49.4,46.5,29.93,SW,225,7.0,14.9,89,0.00,,,0.08,NetBSD+Arduino,2013-01-07 22:40:00,
2013-01-07 14:45:00,49.2,46.3,29.95,SW,225,0.6,9.0,89,0.00,,,0.08,NetBSD+Arduino,2013-01-07 22:45:00,
2013-01-07 14:50:00,49.2,46.1,29.93,SE,135,2.2,11.9,89,0.00,,,0.08,NetBSD+Arduino,2013-01-07 22:50:00,
2013-01-07 14:55:00,49.2,46.0,29.95,SW,225,3.0,20.9,88,0.00,,,0.08,NetBSD+Arduino,2013-01-07 22:55:00,
2013-01-07 15:00:00,49.2,45.9,29.95,SW,225,2.6,9.0,88,0.00,,,0.08,NetBSD+Arduino,2013-01-07 23:00:00,
2013-01-07 15:06:00,49.1,45.7,29.95,West,270,3.0,14.9,87,0.00,,,0.08,NetBSD+Arduino,2013-01-07 23:06:00,
2013-01-07 15:11:00,49.1,45.7,29.96,SW,225,6.0,11.9,87,0.00,,,0.08,NetBSD+Arduino,2013-01-07 23:11:00,
2013-01-07 15:20:00,49.0,45.5,29.96,South,180,1.5,13.4,87,0.00,,,0.08,NetBSD+Arduino,2013-01-07 23:20:00,
2013-01-07 15:26:00,48.8,45.4,29.97,SW,225,4.0,11.9,87,0.00,,,0.08,NetBSD+Arduino,2013-01-07 23:26:00,
2013-01-07 15:35:00,48.7,45.4,29.97,South,180,5.6,7.5,88,0.00,,,0.08,NetBSD+Arduino,2013-01-07 23:35:00,
2013-01-07 15:45:00,48.7,45.2,29.99,South,180,3.4,13.4,87,0.00,,,0.08,NetBSD+Arduino,2013-01-07 23:45:00,
2013-01-07 15:50:00,48.7,45.5,29.99,South,180,2.6,13.4,88,0.00,,,0.08,NetBSD+Arduino,2013-01-07 23:50:00,
2013-01-07 15:55:00,48.6,45.3,29.99,SW,225,0.4,10.4,88,0.00,,,0.08,NetBSD+Arduino,2013-01-07 23:55:00,
2013-01-07 16:00:00,48.5,45.3,30.00,South,180,3.5,11.9,88,0.00,,,0.08,NetBSD+Arduino,2013-01-08 00:00:00,
2013-01-07 16:05:00,48.5,45.3,30.00,South,180,4.5,7.5,88,0.00,,,0.08,NetBSD+Arduino,2013-01-08 00:05:00,
2013-01-07 16:10:00,48.4,45.2,30.00,South,180,3.0,9.0,88,0.00,,,0.08,NetBSD+Arduino,2013-01-08 00:10:00,
2013-01-07 16:15:00,48.4,45.1,30.00,SW,225,3.7,9.0,88,0.00,,,0.08,NetBSD+Arduino,2013-01-08 00:15:00,
2013-01-07 16:20:00,48.3,45.1,30.00,West,270,1.8,11.9,88,0.00,,,0.08,NetBSD+Arduino,2013-01-08 00:20:00,
2013-01-07 16:25:00,48.2,45.0,30.00,South,180,1.5,11.9,88,0.00,,,0.08,NetBSD+Arduino,2013-01-08 00:25:00,
2013-01-07 16:30:00,48.2,45.2,30.00,SW,225,1.0,9.0,89,0.00,,,0.08,NetBSD+Arduino,2013-01-08 00:30:00,
2013-01-07 16:40:00,48.2,45.0,30.00,South,180,7.1,9.0,88,0.00,,,0.08,NetBSD+Arduino,2013-01-08 00:40:00,
2013-01-07 16:45:00,48.1,45.0,30.00,SW,225,1.5,10.4,89,0.00,,,0.08,NetBSD+Arduino,2013-01-08 00:45:00,
2013-01-07 16:50:00,48.1,45.0,30.01,SW,225,8.7,10.4,89,0.00,,,0.08,NetBSD+Arduino,2013-01-08 00:50:00,
2013-01-07 16:56:00,48.2,45.0,30.01,SW,225,4.5,10.4,88,0.00,,,0.08,NetBSD+Arduino,2013-01-08 00:56:00,
2013-01-07 17:05:00,48.2,45.0,30.02,SW,225,4.1,13.4,88,0.00,,,0.08,NetBSD+Arduino,2013-01-08 01:05:00,
2013-01-07 17:10:00,48.1,44.9,30.00,SW,225,1.1,9.0,88,0.00,,,0.08,NetBSD+Arduino,2013-01-08 01:10:00,
2013-01-07 17:15:00,48.1,45.0,30.01,South,180,4.8,11.9,89,0.00,,,0.08,NetBSD+Arduino,2013-01-08 01:15:00,
2013-01-07 17:20:00,48.0,45.1,30.02,West,270,1.5,9.0,89,0.00,,,0.08,NetBSD+Arduino,2013-01-08 01:20:00,
2013-01-07 17:25:00,48.0,45.1,30.02,SW,225,5.6,10.4,89,0.00,,,0.08,NetBSD+Arduino,2013-01-08 01:25:00,
2013-01-07 17:30:00,48.0,45.1,30.02,South,180,5.2,11.9,89,0.00,,,0.08,NetBSD+Arduino,2013-01-08 01:30:00,
2013-01-07 17:35:00,48.1,45.0,30.03,SE,135,5.2,6.0,89,0.00,,,0.08,NetBSD+Arduino,2013-01-08 01:35:00,
2013-01-07 17:40:00,48.1,45.1,30.02,NW,315,2.6,9.0,89,0.00,,,0.08,NetBSD+Arduino,2013-01-08 01:40:00,
2013-01-07 17:45:00,48.1,45.1,30.03,South,180,2.2,7.5,89,0.00,,,0.08,NetBSD+Arduino,2013-01-08 01:45:00,
2013-01-07 17:50:00,48.1,45.0,30.03,SW,225,3.4,7.5,89,0.00,,,0.08,NetBSD+Arduino,2013-01-08 01:50:00,
2013-01-07 18:05:00,48.0,44.8,30.04,West,270,2.5,10.4,88,0.00,,,0.08,NetBSD+Arduino,2013-01-08 02:05:00,
2013-01-07 18:10:00,47.9,44.7,30.04,SW,225,3.4,7.5,88,0.00,,,0.08,NetBSD+Arduino,2013-01-08 02:10:00,
2013-01-07 18:16:00,47.8,44.6,30.04,SW,225,3.4,9.0,88,0.00,,,0.08,NetBSD+Arduino,2013-01-08 02:16:00,
2013-01-07 18:21:00,47.8,44.5,30.03,South,180,3.6,11.9,88,0.00,,,0.08,NetBSD+Arduino,2013-01-08 02:21:00,
2013-01-07 18:30:00,47.7,44.5,30.04,West,270,1.9,13.4,88,0.00,,,0.08,NetBSD+Arduino,2013-01-08 02:30:00,
2013-01-07 18:40:00,47.6,43.9,30.04,South,180,8.6,11.9,86,0.00,,,0.08,NetBSD+Arduino,2013-01-08 02:40:00,
2013-01-07 18:45:00,47.6,43.9,30.05,SW,225,3.0,11.9,86,0.00,,,0.08,NetBSD+Arduino,2013-01-08 02:45:00,
2013-01-07 18:51:00,47.5,43.8,30.06,SW,225,4.1,10.4,86,0.00,,,0.08,NetBSD+Arduino,2013-01-08 02:51:00,
2013-01-07 19:00:00,47.5,43.5,30.06,South,180,3.7,9.0,86,0.00,,,0.08,NetBSD+Arduino,2013-01-08 03:00:00,
2013-01-07 19:05:00,47.5,43.5,30.06,South,180,2.6,7.5,86,0.00,,,0.08,NetBSD+Arduino,2013-01-08 03:05:00,
2013-01-07 19:10:00,47.4,43.4,30.07,SW,225,9.7,10.4,86,0.00,,,0.08,NetBSD+Arduino,2013-01-08 03:10:00,
2013-01-07 19:20:00,47.4,43.4,30.06,South,180,1.0,7.5,86,0.00,,,0.08,NetBSD+Arduino,2013-01-08 03:20:00,
2013-01-07 19:25:00,47.2,43.1,30.06,SW,225,4.8,9.0,85,0.00,,,0.08,NetBSD+Arduino,2013-01-08 03:25:00,
2013-01-07 19:30:00,47.2,43.1,30.06,SW,225,0.7,11.9,85,0.00,,,0.08,NetBSD+Arduino,2013-01-08 03:30:00,
2013-01-07 19:40:00,47.1,43.1,30.05,South,180,5.2,10.4,86,0.00,,,0.08,NetBSD+Arduino,2013-01-08 03:40:00,
2013-01-07 19:45:00,47.1,42.8,30.05,South,180,2.6,13.4,85,0.00,,,0.08,NetBSD+Arduino,2013-01-08 03:45:00,
2013-01-07 19:50:00,47.1,42.8,30.05,South,180,3.4,10.4,85,0.00,,,0.08,NetBSD+Arduino,2013-01-08 03:50:00,
2013-01-07 19:55:00,46.9,42.7,30.06,South,180,1.8,9.0,85,0.00,,,0.08,NetBSD+Arduino,2013-01-08 03:55:00,
2013-01-07 20:05:00,46.9,42.6,30.07,South,180,2.2,9.0,85,0.00,,,0.08,NetBSD+Arduino,2013-01-08 04:05:00,
2013-01-07 20:11:00,46.9,42.6,30.07,SW,225,6.3,13.4,85,0.00,,,0.08,NetBSD+Arduino,2013-01-08 04:11:00,
2013-01-07 20:21:00,46.9,42.6,30.08,SW,225,1.0,7.5,85,0.00,,,0.08,NetBSD+Arduino,2013-01-08 04:21:00,
2013-01-07 20:30:00,46.8,42.4,30.07,South,180,1.9,10.4,84,0.00,,,0.08,NetBSD+Arduino,2013-01-08 04:30:00,
2013-01-07 20:35:00,46.7,42.2,30.08,South,180,3.7,7.5,84,0.00,,,0.08,NetBSD+Arduino,2013-01-08 04:35:00,
2013-01-07 20:40:00,46.7,42.3,30.08,South,180,3.5,13.4,84,0.00,,,0.08,NetBSD+Arduino,2013-01-08 04:40:00,
2013-01-07 20:45:00,46.7,42.2,30.09,SE,135,2.4,9.0,84,0.00,,,0.08,NetBSD+Arduino,2013-01-08 04:45:00,
2013-01-07 20:50:00,46.7,42.2,30.09,South,180,3.5,6.0,84,0.00,,,0.08,NetBSD+Arduino,2013-01-08 04:50:00,
2013-01-07 20:55:00,46.7,42.2,30.09,South,180,4.8,9.0,84,0.00,,,0.08,NetBSD+Arduino,2013-01-08 04:55:00,
2013-01-07 21:00:00,46.6,42.1,30.10,South,180,3.3,10.4,84,0.00,,,0.08,NetBSD+Arduino,2013-01-08 05:00:00,
2013-01-07 21:05:00,46.5,42.1,30.10,South,180,6.7,11.9,84,0.00,,,0.08,NetBSD+Arduino,2013-01-08 05:05:00,
2013-01-07 21:10:00,46.5,42.0,30.10,South,180,6.5,10.4,84,0.00,,,0.08,NetBSD+Arduino,2013-01-08 05:10:00,
2013-01-07 21:15:00,46.5,41.9,30.10,South,180,6.7,10.4,83,0.00,,,0.08,NetBSD+Arduino,2013-01-08 05:15:00,
2013-01-07 21:20:00,46.5,41.7,30.10,South,180,6.7,11.9,83,0.00,,,0.08,NetBSD+Arduino,2013-01-08 05:20:00,
2013-01-07 21:25:00,46.4,41.9,30.10,SW,225,2.2,7.5,84,0.00,,,0.08,NetBSD+Arduino,2013-01-08 05:25:00,
2013-01-07 21:35:00,46.4,41.7,30.11,South,180,5.2,9.0,83,0.00,,,0.08,NetBSD+Arduino,2013-01-08 05:35:00,
2013-01-07 21:40:00,46.4,41.8,30.12,South,180,3.7,11.9,83,0.00,,,0.08,NetBSD+Arduino,2013-01-08 05:40:00,
2013-01-07 21:45:00,46.5,41.5,30.12,South,180,4.1,9.0,82,0.00,,,0.08,NetBSD+Arduino,2013-01-08 05:45:00,
2013-01-07 21:50:00,46.4,41.5,30.11,South,180,4.1,9.0,82,0.00,,,0.08,NetBSD+Arduino,2013-01-08 05:50:00,
2013-01-07 22:00:00,46.4,41.8,30.12,South,180,5.0,11.9,83,0.00,,,0.08,NetBSD+Arduino,2013-01-08 06:00:00,
2013-01-07 22:05:00,46.4,41.6,30.12,South,180,6.0,11.9,83,0.00,,,0.08,NetBSD+Arduino,2013-01-08 06:05:00,
2013-01-07 22:10:00,46.4,41.6,30.12,South,180,4.1,10.4,83,0.00,,,0.08,NetBSD+Arduino,2013-01-08 06:10:00,
2013-01-07 22:15:00,46.4,41.7,30.12,South,180,6.5,14.9,83,0.00,,,0.08,NetBSD+Arduino,2013-01-08 06:15:00,
2013-01-07 22:20:00,46.4,41.6,30.12,South,180,4.5,11.9,83,0.00,,,0.08,NetBSD+Arduino,2013-01-08 06:20:00,
2013-01-07 22:25:00,46.3,41.4,30.12,South,180,6.7,13.4,82,0.00,,,0.08,NetBSD+Arduino,2013-01-08 06:25:00,
2013-01-07 22:30:00,46.3,41.4,30.12,South,180,7.8,10.4,82,0.00,,,0.08,NetBSD+Arduino,2013-01-08 06:30:00,
2013-01-07 22:40:00,46.2,41.2,30.12,South,180,5.6,10.4,82,0.00,,,0.08,NetBSD+Arduino,2013-01-08 06:40:00,
2013-01-07 22:45:00,46.2,41.3,30.12,South,180,7.1,9.0,82,0.00,,,0.08,NetBSD+Arduino,2013-01-08 06:45:00,
2013-01-07 22:50:00,46.2,41.5,30.13,South,180,5.7,11.9,83,0.00,,,0.08,NetBSD+Arduino,2013-01-08 06:50:00,
2013-01-07 22:55:00,46.2,41.5,30.13,SE,135,0.0,7.5,83,0.00,,,0.08,NetBSD+Arduino,2013-01-08 06:55:00,
2013-01-07 23:05:00,46.1,41.6,30.14,South,180,2.7,4.5,84,0.00,,,0.08,NetBSD+Arduino,2013-01-08 07:05:00,
2013-01-07 23:10:00,46.1,41.6,30.15,South,180,3.4,6.0,84,0.00,,,0.08,NetBSD+Arduino,2013-01-08 07:10:00,
2013-01-07 23:15:00,46.0,41.5,30.15,South,180,5.5,7.5,84,0.00,,,0.08,NetBSD+Arduino,2013-01-08 07:15:00,
2013-01-07 23:20:00,46.1,41.3,30.14,SW,225,1.5,9.0,83,0.00,,,0.08,NetBSD+Arduino,2013-01-08 07:20:00,
2013-01-07 23:25:00,46.1,41.6,30.14,South,180,4.5,10.4,84,0.00,,,0.08,NetBSD+Arduino,2013-01-08 07:25:00,
2013-01-07 23:30:00,46.1,41.4,30.14,South,180,1.1,6.0,83,0.00,,,0.08,NetBSD+Arduino,2013-01-08 07:30:00,
2013-01-07 23:35:00,46.0,41.4,30.15,South,180,2.7,7.5,83,0.00,,,0.08,NetBSD+Arduino,2013-01-08 07:35:00,
2013-01-07 23:40:00,46.0,41.2,30.14,SW,225,4.1,13.4,83,0.00,,,0.08,NetBSD+Arduino,2013-01-08 07:40:00,
2013-01-07 23:46:00,45.9,41.2,30.14,South,180,0.0,13.4,83,0.00,,,0.08,NetBSD+Arduino,2013-01-08 07:46:00,
2013-01-07 23:55:00,45.9,41.3,30.15,SW,225,2.6,10.4,83,0.00,,,0.08,NetBSD+Arduino,2013-01-08 07:55:00,